Terminal Aerodrome Forecast
Issued by NWS

Home | Current Version | Previous Version | Text Only | Print | Product List | Glossary On
Versions: 1 2 3 4 5 6 7 8 9 10 11 12 13 14
000
FTAK31 PAJN 252300
TAFAKT
TAF
PAKT 252321Z 2600/2624 32010KT P6SM FEW200
     FM260400 33006KT P6SM SKC
     FM261200 VRB03KT P6SM BCFG SCT005
     FM261800 VRB03KT P6SM SCT070
     FM262100 14005KT P6SM BKN050
      AMD LTD TO CLD VIS AND WIND 2606/2615=

USA.gov is the U.S. government's official web portal to all federal, state and local government web resources and services.